GFSFLT2_500_temp_177.txt.gz
Temp
-15 -15 -15 -15 -15 -15 -15 -15 -15 -15 -15 -15 -15 -15 -15 -15 -15 -15 -16 -17 -17 -17 -17 -17 -17 -16 -16
-15 -15 -15 -15 -15 -15 -15 -15 -15 -15 -15 -15 -15 -15 -16 -17 -17 -18 -19 -20 -20 -20 -21 -21 -20 -20 -20
-15 -15 -15 -15 -15 -15 -15 -15 -15 -15 -15 -16 -17 -18 -19 -20 -20 -21 -21 -22 -22 -22 -23 -23 -22 -22 -22
-15 -15 -16 -16 -15 -15 -15 -15 -15 -17 -18 -19 -21 -22 -23 -23 -24 -24 -24 -24 -24 -24 -24 -24 -24 -23 -23
-16 -16 -16 -16 -15 -15 -15 -16 -17 -20 -20 -22 -23 -24 -25 -25 -25 -25 -25 -25 -26 -26 -26 -26 -26 -26 -25
-16 -16 -16 -16 -16 -16 -17 -19 -21 -24 -23 -24 -25 -25 -25 -26 -26 -27 -27 -27 -28 -28 -29 -29 -28 -28 -28
-16 -16 -16 -17 -17 -18 -21 -23 -24 -25 -25 -25 -25 -26 -26 -26 -27 -27 -27 -28 -29 -30 -31 -31 -31 -31 -30
-17 -17 -18 -19 -21 -22 -24 -24 -26 -26 -25 -26 -26 -26 -26 -26 -27 -27 -28 -29 -31 -32 -32 -32 -32 -32 -32
-18 -19 -20 -22 -24 -24 -25 -26 -26 -27 -26 -26 -26 -26 -27 -27 -27 -27 -29 -30 -32 -32 -33 -33 -33 -33 -33
-19 -21 -23 -24 -25 -26 -26 -26 -26 -27 -26 -26 -26 -26 -27 -27 -27 -28 -29 -31 -32 -33 -33 -33 -33 -33 -34
-22 -24 -24 -25 -27 -27 -27 -27 -26 -27 -26 -27 -27 -27 -27 -27 -27 -28 -29 -31 -32 -33 -33 -33 -33 -33 -33
-24 -24 -25 -27 -28 -28 -27 -27 -26 -26 -27 -27 -27 -27 -27 -28 -28 -29 -29 -31 -32 -33 -33 -33 -33 -33 -33
-25 -26 -28 -29 -29 -28 -27 -27 -27 -27 -27 -28 -28 -28 -28 -28 -29 -29 -30 -30 -31 -32 -33 -33 -33 -32 -33
-26 -27 -29 -30 -29 -28 -27 -27 -27 -28 -27 -28 -28 -28 -28 -28 -29 -29 -29 -30 -31 -32 -32 -32 -32 -32 -32
-28 -29 -30 -30 -29 -28 -27 -27 -27 -28 -28 -28 -28 -28 -28 -28 -29 -29 -30 -30 -31 -31 -31 -32 -32 -32 -32
-29 -30 -30 -29 -29 -28 -28 -27 -28 -28 -28 -28 -28 -28 -28 -28 -27 -28 -29 -30 -30 -30 -30 -31 -32 -32 -32
-30 -30 -30 -29 -29 -28 -28 -28 -28 -28 -27 -27 -28 -28 -28 -29 -29 -28 -29 -29 -29 -30 -30 -30 -31 -31 -32

GFSFLT2_500_temp_180.txt.gz
Temp
-15 -15 -15 -15 -15 -15 -15 -15 -15 -16 -16 -15 -15 -15 -15 -15 -15 -15 -15 -16 -17 -18 -20 -20 -20 -19 -19
-15 -15 -15 -15 -15 -15 -15 -16 -16 -16 -15 -15 -16 -15 -15 -16 -16 -17 -19 -20 -21 -21 -22 -22 -22 -22 -22
-15 -16 -16 -16 -16 -16 -16 -16 -16 -16 -16 -16 -16 -17 -18 -19 -20 -21 -22 -23 -23 -24 -24 -24 -25 -25 -24
-16 -16 -16 -16 -16 -16 -16 -16 -16 -16 -16 -17 -18 -20 -21 -22 -23 -24 -24 -23 -24 -25 -25 -26 -26 -26 -26
-16 -16 -17 -17 -16 -16 -16 -16 -16 -17 -18 -20 -21 -23 -24 -25 -25 -24 -24 -24 -25 -26 -26 -26 -27 -28 -28
-17 -17 -17 -17 -16 -16 -16 -16 -17 -20 -21 -23 -24 -25 -25 -25 -25 -25 -25 -26 -26 -26 -27 -27 -29 -29 -30
-17 -17 -17 -17 -17 -17 -17 -19 -21 -23 -23 -25 -26 -25 -25 -25 -25 -25 -26 -26 -26 -26 -28 -29 -30 -31 -31
-18 -17 -17 -17 -18 -18 -20 -22 -24 -25 -25 -26 -26 -26 -26 -26 -26 -26 -26 -26 -26 -27 -28 -30 -32 -32 -32
-18 -18 -18 -19 -20 -22 -23 -24 -25 -27 -26 -26 -26 -26 -26 -26 -27 -27 -27 -26 -27 -27 -29 -31 -32 -33 -33
-19 -19 -20 -22 -23 -24 -24 -25 -26 -27 -27 -27 -26 -26 -28 -27 -27 -28 -27 -27 -27 -28 -29 -31 -32 -32 -33
-19 -21 -22 -24 -24 -24 -26 -26 -27 -27 -27 -27 -27 -27 -27 -28 -27 -27 -28 -28 -28 -29 -29 -31 -32 -32 -32
-22 -23 -24 -25 -25 -27 -28 -28 -27 -27 -27 -27 -27 -27 -27 -28 -28 -27 -28 -28 -29 -30 -30 -30 -31 -32 -32
-23 -25 -26 -26 -27 -29 -29 -29 -28 -27 -27 -27 -27 -27 -27 -27 -28 -27 -28 -29 -28 -29 -30 -30 -30 -31 -32
-24 -26 -27 -28 -29 -30 -30 -29 -29 -28 -27 -27 -27 -27 -27 -27 -27 -28 -28 -28 -29 -29 -29 -30 -30 -30 -31
-26 -27 -28 -29 -30 -30 -29 -29 -28 -28 -28 -28 -27 -27 -27 -26 -27 -27 -28 -28 -29 -29 -29 -30 -30 -30 -30
-27 -28 -29 -30 -30 -30 -29 -29 -28 -28 -28 -28 -28 -28 -28 -27 -26 -27 -28 -28 -29 -29 -29 -30 -30 -30 -30
-28 -29 -29 -30 -30 -30 -29 -29 -28 -28 -28 -27 -27 -27 -28 -28 -28 -27 -28 -28 -29 -29 -29 -30 -30 -30 -30

GFSFLT2_500_temp_186.txt.gz
Temp
-16 -16 -16 -16 -16 -16 -16 -16 -16 -16 -16 -16 -16 -16 -16 -16 -16 -16 -16 -16 -16 -17 -18 -19 -19 -20 -21
-16 -16 -16 -16 -16 -16 -17 -16 -16 -16 -16 -16 -16 -16 -16 -16 -16 -16 -17 -18 -19 -20 -21 -22 -23 -24 -24
-16 -17 -17 -17 -17 -17 -17 -16 -16 -16 -17 -17 -17 -17 -17 -16 -17 -19 -20 -21 -22 -23 -24 -24 -24 -24 -24
-16 -17 -17 -17 -17 -17 -17 -17 -17 -17 -17 -17 -17 -17 -17 -18 -19 -21 -22 -24 -25 -25 -25 -25 -25 -25 -25
-17 -17 -17 -17 -17 -17 -17 -17 -18 -17 -17 -18 -18 -19 -20 -21 -22 -23 -25 -26 -26 -26 -26 -25 -25 -25 -25
-17 -17 -18 -17 -17 -17 -18 -18 -17 -18 -18 -18 -19 -21 -22 -22 -24 -26 -27 -27 -26 -26 -26 -26 -26 -26 -26
-18 -17 -17 -18 -18 -18 -18 -18 -18 -18 -18 -20 -21 -23 -24 -24 -26 -27 -27 -27 -27 -26 -26 -26 -26 -26 -26
-18 -18 -18 -18 -18 -18 -18 -18 -19 -19 -20 -22 -24 -25 -26 -26 -27 -27 -27 -27 -27 -27 -26 -26 -26 -27 -27
-18 -18 -18 -18 -18 -18 -19 -19 -20 -22 -23 -25 -26 -26 -28 -28 -27 -27 -27 -27 -27 -27 -26 -26 -27 -27 -28
-19 -19 -19 -19 -19 -19 -19 -20 -22 -23 -25 -26 -27 -28 -29 -29 -28 -27 -27 -27 -27 -27 -27 -27 -27 -27 -28
-19 -19 -19 -19 -19 -20 -21 -23 -24 -26 -26 -26 -28 -29 -29 -28 -28 -27 -27 -27 -27 -26 -27 -27 -27 -28 -28
-19 -19 -20 -20 -21 -22 -24 -25 -27 -27 -27 -27 -28 -29 -29 -28 -28 -28 -27 -27 -27 -26 -27 -27 -28 -28 -28
-20 -20 -20 -21 -22 -23 -25 -27 -27 -28 -28 -28 -29 -29 -28 -28 -28 -28 -28 -27 -26 -27 -27 -27 -28 -28 -29
-20 -20 -21 -22 -24 -25 -27 -27 -28 -29 -29 -29 -29 -29 -28 -28 -28 -28 -27 -27 -27 -27 -28 -28 -28 -28 -29
-21 -21 -22 -24 -25 -27 -27 -27 -28 -29 -29 -30 -30 -29 -28 -27 -27 -27 -27 -27 -27 -27 -28 -28 -28 -28 -29
-21 -23 -24 -25 -27 -27 -27 -28 -28 -29 -29 -29 -30 -29 -29 -28 -27 -26 -26 -27 -27 -27 -27 -28 -29 -28 -29
-23 -25 -26 -27 -27 -27 -28 -28 -28 -29 -29 -29 -29 -29 -29 -29 -28 -26 -26 -26 -27 -27 -27 -28 -28 -29 -29

GFSFLT2_500_temp_192.txt.gz
Temp
-17 -17 -17 -16 -16 -16 -16 -16 -16 -16 -16 -16 -17 -17 -16 -17 -17 -17 -17 -17 -17 -17 -17 -16 -16 -17 -18
-17 -17 -17 -16 -17 -16 -16 -16 -16 -16 -17 -17 -17 -17 -17 -17 -17 -17 -17 -17 -17 -17 -16 -17 -19 -20 -21
-17 -17 -17 -17 -17 -17 -17 -17 -17 -17 -17 -17 -17 -18 -17 -18 -18 -18 -18 -17 -17 -18 -19 -20 -21 -22 -24
-17 -17 -17 -17 -17 -17 -18 -18 -18 -17 -17 -18 -18 -18 -18 -18 -18 -18 -18 -18 -19 -21 -22 -23 -24 -25 -26
-18 -18 -18 -18 -17 -17 -18 -18 -18 -18 -18 -18 -18 -18 -18 -18 -18 -18 -18 -20 -22 -24 -24 -24 -26 -27 -27
-18 -18 -18 -18 -18 -18 -18 -18 -18 -19 -18 -19 -19 -19 -19 -19 -19 -19 -21 -22 -24 -25 -26 -26 -27 -27 -27
-18 -18 -18 -18 -18 -18 -18 -18 -18 -18 -18 -19 -19 -20 -20 -20 -21 -22 -23 -24 -25 -26 -27 -28 -28 -28 -27
-18 -18 -18 -18 -18 -18 -18 -18 -19 -19 -19 -19 -20 -20 -21 -22 -24 -25 -25 -26 -26 -27 -29 -29 -28 -28 -28
-18 -18 -18 -18 -18 -18 -18 -18 -19 -19 -20 -20 -20 -21 -23 -25 -27 -27 -27 -27 -27 -27 -29 -29 -28 -28 -28
-18 -18 -18 -19 -18 -18 -18 -19 -19 -20 -20 -20 -21 -22 -23 -26 -27 -28 -28 -28 -29 -28 -28 -28 -28 -28 -28
-18 -19 -19 -19 -19 -19 -19 -20 -20 -21 -21 -21 -22 -23 -25 -26 -27 -28 -28 -29 -29 -30 -29 -28 -28 -27 -27
-19 -19 -19 -20 -20 -20 -20 -21 -21 -22 -22 -23 -24 -25 -26 -28 -28 -28 -28 -29 -29 -30 -29 -28 -28 -27 -27
-20 -20 -20 -20 -20 -21 -21 -22 -22 -23 -24 -24 -25 -26 -27 -28 -29 -29 -28 -29 -29 -30 -29 -28 -28 -27 -27
-20 -20 -21 -21 -21 -21 -22 -22 -23 -24 -26 -26 -26 -27 -28 -29 -29 -29 -29 -29 -30 -30 -29 -29 -28 -27 -27
-21 -21 -21 -21 -22 -22 -22 -23 -24 -25 -26 -27 -28 -28 -29 -29 -29 -29 -29 -29 -29 -29 -29 -29 -28 -27 -27
-21 -21 -21 -22 -22 -23 -23 -24 -24 -26 -27 -28 -28 -29 -30 -30 -30 -30 -30 -29 -29 -29 -29 -28 -29 -27 -27
-21 -22 -22 -23 -23 -24 -24 -25 -26 -27 -28 -29 -30 -30 -30 -30 -31 -31 -30 -30 -29 -29 -29 -28 -28 -28 -28

GFSFLT2_500_temp_195.txt.gz
Temp
-17 -17 -16 -16 -16 -16 -17 -16 -17 -17 -17 -16 -16 -17 -17 -17 -17 -17 -17 -17 -17 -17 -17 -17 -17 -17 -17
-17 -17 -16 -17 -17 -17 -16 -17 -17 -17 -17 -17 -17 -17 -17 -17 -17 -17 -17 -17 -17 -17 -17 -17 -17 -17 -17
-17 -17 -17 -18 -17 -17 -17 -17 -17 -17 -17 -18 -17 -17 -17 -17 -18 -18 -18 -18 -18 -18 -18 -18 -18 -19 -20
-17 -19 -18 -17 -17 -18 -18 -17 -17 -17 -18 -18 -18 -18 -18 -18 -18 -18 -18 -18 -18 -18 -18 -19 -20 -22 -23
-17 -18 -17 -17 -18 -18 -18 -18 -18 -18 -18 -18 -18 -18 -18 -18 -18 -18 -18 -18 -18 -19 -19 -21 -23 -25 -25
-18 -18 -18 -18 -18 -18 -18 -18 -18 -18 -19 -19 -19 -19 -19 -19 -19 -19 -19 -19 -19 -20 -22 -24 -26 -26 -26
-18 -18 -18 -18 -18 -18 -18 -18 -18 -18 -18 -19 -19 -19 -19 -19 -20 -20 -20 -20 -21 -22 -24 -26 -27 -27 -28
-18 -18 -18 -19 -19 -18 -18 -19 -19 -19 -18 -18 -19 -19 -20 -20 -21 -21 -21 -22 -23 -25 -26 -27 -28 -28 -29
-19 -19 -19 -19 -18 -18 -19 -19 -19 -19 -19 -19 -19 -20 -20 -21 -22 -23 -23 -24 -25 -27 -27 -28 -28 -28 -29
-19 -19 -19 -18 -19 -19 -19 -19 -19 -19 -19 -19 -20 -20 -20 -21 -23 -24 -25 -26 -27 -28 -28 -28 -28 -29 -29
-19 -19 -19 -19 -19 -19 -19 -19 -19 -19 -20 -20 -20 -20 -21 -22 -23 -25 -25 -26 -28 -28 -29 -29 -29 -29 -29
-19 -19 -19 -19 -19 -19 -19 -20 -20 -20 -20 -20 -20 -21 -22 -23 -24 -25 -25 -27 -28 -29 -29 -29 -29 -29 -29
-19 -19 -20 -20 -20 -20 -20 -21 -21 -21 -21 -21 -21 -22 -23 -24 -24 -25 -26 -29 -29 -29 -30 -30 -30 -30 -29
-20 -20 -20 -20 -21 -21 -21 -21 -22 -23 -23 -23 -23 -23 -24 -25 -26 -27 -29 -29 -30 -30 -30 -30 -30 -30 -29
-20 -21 -21 -21 -22 -22 -22 -22 -23 -23 -24 -24 -24 -24 -26 -27 -28 -29 -30 -30 -30 -30 -30 -30 -30 -30 -29
-21 -21 -22 -22 -22 -22 -22 -23 -24 -24 -24 -24 -25 -26 -27 -31 -31 -30 -31 -31 -31 -30 -30 -29 -30 -30 -29
-22 -22 -22 -22 -22 -23 -23 -24 -24 -24 -25 -25 -26 -27 -29 -30 -33 -32 -31 -31 -31 -30 -30 -30 -30 -30 -29

GFSFLT2_500_temp_198.txt.gz
Temp
-17 -17 -17 -16 -16 -17 -17 -16 -16 -16 -16 -16 -16 -17 -17 -17 -17 -17 -17 -17 -17 -17 -17 -17 -17 -17 -17
-18 -18 -17 -17 -17 -17 -17 -16 -17 -16 -16 -17 -17 -17 -18 -18 -17 -17 -17 -17 -17 -17 -17 -18 -18 -18 -18
-18 -18 -18 -18 -18 -18 -17 -17 -16 -16 -17 -17 -17 -18 -18 -17 -17 -17 -17 -18 -18 -18 -18 -18 -18 -18 -18
-18 -17 -17 -19 -19 -18 -17 -17 -17 -17 -18 -17 -18 -18 -17 -18 -17 -18 -18 -18 -18 -18 -18 -18 -18 -18 -18
-17 -17 -18 -19 -18 -17 -17 -18 -18 -17 -18 -18 -18 -18 -18 -18 -18 -18 -18 -18 -19 -19 -18 -18 -18 -19 -20
-18 -19 -18 -18 -18 -18 -18 -18 -18 -18 -19 -19 -18 -18 -18 -19 -19 -19 -19 -19 -19 -18 -18 -19 -19 -20 -22
-19 -18 -18 -18 -18 -18 -18 -18 -19 -19 -19 -19 -19 -19 -19 -19 -19 -19 -19 -19 -19 -19 -19 -19 -20 -21 -23
-19 -19 -19 -18 -18 -18 -19 -19 -20 -19 -19 -19 -19 -20 -20 -20 -20 -20 -19 -19 -19 -19 -19 -20 -22 -23 -25
-19 -19 -18 -19 -19 -19 -20 -20 -20 -19 -19 -19 -19 -19 -20 -20 -20 -20 -20 -19 -20 -20 -20 -22 -24 -25 -27
-19 -19 -19 -19 -19 -20 -20 -19 -19 -19 -19 -19 -20 -20 -20 -20 -20 -20 -20 -20 -21 -21 -23 -24 -25 -27 -28
-19 -19 -20 -20 -20 -20 -20 -20 -20 -20 -20 -19 -20 -20 -20 -19 -20 -20 -21 -21 -22 -23 -25 -27 -28 -28 -29
-20 -20 -20 -20 -20 -20 -20 -20 -20 -20 -20 -20 -20 -20 -20 -20 -20 -21 -22 -23 -24 -25 -27 -29 -29 -30 -29
-20 -21 -21 -20 -20 -20 -20 -20 -20 -20 -20 -20 -20 -20 -21 -22 -22 -23 -24 -25 -26 -27 -29 -30 -30 -30 -30
-21 -21 -21 -21 -21 -20 -20 -21 -21 -21 -21 -21 -21 -22 -23 -24 -24 -24 -25 -26 -28 -29 -30 -31 -31 -30 -30
-21 -21 -21 -21 -20 -21 -21 -22 -22 -22 -23 -23 -23 -24 -24 -25 -25 -25 -27 -28 -29 -30 -31 -31 -31 -30 -30
-21 -21 -21 -21 -22 -22 -22 -22 -23 -23 -24 -24 -25 -25 -25 -27 -29 -28 -29 -31 -31 -32 -31 -31 -31 -31 -30
-21 -21 -21 -22 -22 -23 -23 -23 -24 -24 -25 -25 -25 -25 -26 -27 -30 -31 -30 -32 -32 -32 -32 -31 -31 -31 -31